Zurück zum Katalog

STARLINK-34305

AktivKommunikationVLEO
NORAD 65375·PAYLOAD·🇺🇸 United States

Gestartet Aug 28, 2025 von Cape Canaveral Space Force Station

Loading…

Nächste Überflüge (nächste 24 Stunden)

TLE

AktuellSource: CelesTrak SupGP

Epoche: Sep 15, 2026, 03:04 UTC

1 65375C 25190AA  26258.12826389  .00063044  00000+0  18625-2 0  2583
2 65375  53.1602   7.1416 0001119  82.4961 316.0356 15.34361100    15

Verfolge STARLINK-34305 in Echtzeit mit AllMySat

Download on the App Store